Flag for Norway Weather past 2 weeks in Stavanger, Norway

Now
39 °F

Rain showers. Partly cloudy.


Feels Like: 28 °F
Forecast: 35 / 42 °F
Wind: 26 mph from Northwest

Location: Stavanger / Sola

Current Time: Apr 1, 2015 at 8:40:24 AM

Latest Report: Apr 1, 2015 at 7:50 AM


Visibility: N/A

Pressure: 29.42 "Hg

Humidity: 75%

Dew point: 32 °F

Location of StavangerLocation

Historic Weather in Stavanger — Graph

°F

Stavanger temperature yesterday

Maximum temperature yesterday: 43 °F (at 11:50 AM)
Minimum temperature yesterday: 36 °F (at 12:20 AM)
Average temperature yesterday: 38 °F

Past Weeks' High & Low Weather Summary

 TemperatureHumidityPressure
High54 °F (Mar 18, 11:50 AM)100% (Mar 19, 3:50 AM)30.51 "Hg (Mar 19, 3:50 AM)
Low30 °F (Mar 27, 5:50 AM)31% (Mar 21, 2:50 PM)28.91 "Hg (Mar 31, 6:50 AM)
Average41 °F80%29.84 "Hg
* Reported Mar 17 6:20 AM — Apr 1 6:50 AM, Stavanger, Weather by CustomWeather, © 2015

Note: Actual official high and low records may vary slightly from our data, if they occured in-between our weather recording intervals... More about our weather records

Advertising

Stavanger weather history for previous 24 hours

 ConditionsComfort  
Time TempWeatherWind HumidityBarometerVisibility
6:50 AM
Wed, Apr 1
36 °FRain showers. Partly cloudy.31 mph93%29.42 "Hg5 mi
6:20 AM36 °FRain showers. Partly cloudy.28 mph93%29.39 "Hg3 mi
5:50 AM39 °FScattered showers. Passing clouds.26 mph87%29.36 "Hg5 mi
4:50 AM37 °FRain showers. Passing clouds.28 mph87%29.36 "Hg6 mi
3:50 AM39 °FPartly cloudy.20 mph81%29.30 "HgN/A
2:50 AM37 °FPassing clouds.8 mph87%29.30 "HgN/A
1:50 AM37 °FPassing clouds.12 mph87%29.27 "HgN/A
12:50 AM39 °FPartly cloudy.16 mph75%29.27 "HgN/A
12:20 AM39 °FPartly cloudy.9 mph81%29.27 "HgN/A
11:50 PM
Tue, Mar 31
39 °FPartly cloudy.8 mph87%29.27 "HgN/A
11:20 PM39 °FPassing clouds.9 mph87%29.24 "HgN/A
10:50 PM37 °FScattered showers. Partly cloudy.6 mph93%29.24 "HgN/A
10:20 PM36 °FScattered showers. Partly cloudy.2 mph93%29.24 "HgN/A
9:50 PM37 °FRain showers. Partly cloudy.13 mph87%29.24 "Hg4 mi
9:20 PM39 °FScattered showers. Partly cloudy.10 mph75%29.24 "HgN/A
8:50 PM37 °FScattered showers. Broken clouds.6 mph87%29.21 "HgN/A
8:20 PM39 °FPassing clouds.3 mph81%29.21 "HgN/A
7:50 PM39 °FBroken clouds.3 mph87%29.21 "HgN/A
7:20 PM39 °FScattered showers. Scattered clouds.9 mph87%29.18 "HgN/A
6:50 PM37 °FRain showers. Partly sunny.22 mph87%29.18 "Hg5 mi
6:20 PM39 °FBroken clouds.3 mph87%29.18 "HgN/A
5:50 PM39 °FBroken clouds.2 mph87%29.15 "HgN/A
5:20 PM37 °FBroken clouds.5 mph93%29.15 "HgN/A
4:50 PM36 °FSleet. Partly sunny.10 mph93%29.15 "HgN/A
4:20 PM36 °FLight rain. Partly sunny.13 mph93%29.12 "Hg6 mi
3:50 PM37 °FLight rain. Broken clouds.8 mph87%29.12 "Hg5 mi
3:20 PM37 °FRain. Broken clouds.7 mph87%29.12 "Hg5 mi
2:50 PM37 °FDrizzle. Partly sunny.8 mph87%29.12 "HgN/A
2:20 PM39 °FDrizzle. Partly sunny.7 mph81%29.09 "HgN/A
1:50 PM41 °FPartly sunny.6 mph76%29.09 "HgN/A
1:20 PM41 °FBroken clouds.5 mph70%29.06 "HgN/A
12:50 PM41 °FBroken clouds.8 mph70%29.06 "HgN/A
12:20 PM41 °FPartly sunny.6 mph61%29.06 "HgN/A
11:50 AM43 °FSunny.7 mph57%29.03 "Hg10 mi
11:20 AM41 °FSunny.2 mph61%29.03 "Hg10 mi
10:50 AM41 °FPartly sunny.6 mph66%29.00 "HgN/A
10:20 AM39 °FPartly sunny.7 mph70%29.00 "HgN/A
9:50 AM39 °FPartly sunny.5 mph70%28.97 "HgN/A
9:20 AM39 °FPartly sunny.5 mph65%28.97 "HgN/A
8:50 AM39 °FPartly sunny.5 mph65%28.97 "HgN/A
8:20 AM37 °FPartly sunny.5 mph70%28.94 "HgN/A
Weather by CustomWeather, © 2015

See weather overviewHow to use our weather pages